Back to catalog

FENGYUN 1C DEB

AlivePO
NORAD 31168·DEBRIS·🇨🇳 China

Launched May 10, 1999 from Taiyuan Satellite Launch Center

Loading…

Next Passes (next 24 hours)

TLE

FreshSource: Space-Track

Epoch: Sep 12, 2026, 21:58 UTC

1 31168U 99025BHW 26255.91531253  .00001915  00000-0  30695-3 0  9995
2 31168  98.9265  56.5563 0103276 293.9622  65.0794 14.69644128 31226

Track FENGYUN 1C DEB in real time with AllMySat

Download on the App Store